Regional Weather Roundup
Issued by NWS Huntsville, AL

Home | Current Version | Previous Version | Text Only | Print | Product List | Glossary On
Versions: 1 2 3 4 5 6 7 8 9 10 11 12 13 14 15 16 17 18 19 20 21 22 23 24 25 26 27 28
000
ASUS44 KHUN 220110
RWRHUN

WEATHER ROUNDUP FOR THE TENNESSEE VALLEY
NATIONAL WEATHER SERVICE HUNTSVILLE AL
700 PM CST WED FEB 21 2018

ALZ001>004-220200-
NORTHWEST ALABAMA

CITY           SKY/WX    TMP DP  RH WIND       PRES   REMARKS
SHOALS AIRPORT CLOUDY    61  55  81 VRB7      30.29R
$$

ALZ005>007-016-220200-
NORTH CENTRAL ALABAMA

CITY           SKY/WX    TMP DP  RH WIND       PRES   REMARKS
DECATUR AP     CLOUDY    69  62  78 N8        30.26R
HUNTSVILLE AP  CLOUDY    74  64  71 S8        30.25R
MERIDIANVILLE  CLOUDY    66  60  79 N6        30.28R
REDSTONE ARSN  MOCLDY    73  62  67 S3        30.25R
VINEMONT AP    FAIR      73  61  66 S5        30.29S
$$

ALZ008>010-220200-
NORTHEAST ALABAMA

CITY           SKY/WX    TMP DP  RH WIND       PRES   REMARKS
FORT PAYNE     FAIR      72  61  68 MISG      30.30S
SCOTTSBORO AP  FAIR      75  64  69 S9        30.28S
$$

TNZ076-096-097-220200-
SOUTHEASTERN MIDDLE TENNESSEE

CITY           SKY/WX    TMP DP  RH WIND       PRES   REMARKS
TULLAHOMA      CLOUDY    61  59  94 N6        30.30R
WINCHESTER     CLOUDY    64  61  88 N5        30.30S
$$

...SURROUNDING SITES...

CITY           SKY/WX    TMP DP  RH WIND       PRES   REMARKS
ATLANTA        FAIR      72  65  78 SE7       30.35S
ANNISTON       FAIR      73  63  70 CALM      30.30R
BIRMINGHAM     FAIR      75  62  64 SE6       30.29R
CHATTANOOGA    MOCLDY    74  61  63 VRB3      30.31R
CORINTH        CLOUDY    54  50  87 NE10G16   30.29S
DALTON         FAIR      68  63  83 SE3       30.34R
GADSDEN        FAIR      74  65  73 SE7       30.29S
GOLDEN TRNGL   LGT RAIN  68  65  90 N5        30.22R
HALEYVILLE     CLOUDY    71  66  84 CALM      30.28R
JACKSON TN     RAIN      45  45 100 NE7       30.34S
MEMPHIS        LGT RAIN  47  46  97 E13       30.27F
NASHVILLE      CLOUDY    50  46  86 N12       30.38R
OXFORD MS      RAIN      52  50  93 NE8G17    30.29R
ROME           FAIR      70  65  84 CALM      30.31S
SAVANNAH       CLOUDY    52  50  93 NE9G16    30.31S FOG
TUPELO         MOCLDY    58  54  86 N14       30.24
TUSCALOOSA     FAIR      78  64  61 SE5       30.23R
$$

...GULF COAST WEATHER...

CITY           SKY/WX    TMP DP  RH WIND       PRES   REMARKS
GULFPORT       CLOUDY    73  72  96 SE14      30.23S FOG
PASCAGOULA     CLOUDY    73  70  90 SE9       30.25S
MOBILE         CLOUDY    73  70  90 SE13      30.28R
GULF SHORES    CLOUDY    72  72 100 SE13      30.29R
PENSACOLA      MOCLDY    72  70  93 SE10      30.29
DESTIN         CLOUDY    72  67  84 SE14      30.31S
PANAMA CITY    CLEAR     70  68  93 E3        30.33R
APPALACHICOLA  FAIR      70  69  97 SE5       30.33R
$$





USA.gov is the U.S. government's official web portal to all federal, state and local government web resources and services.